| time (UTC) | temp F | wind direction | speed knots | gust knots | rain 1hr in | rain 24hr in | rain mn in | humidity % | barometer mb |
| 20260902070004 | 66 | 170 | 3.5 | 8.7 | 0.00 | 0.00 | 0.00 | 49 | |
| 20260902065614 | 66 | 157 | 2.6 | 8.7 | 0.00 | 0.00 | 0.00 | 49 | |
| 20260902064503 | 67 | 194 | 3.5 | 8.7 | 0.00 | 0.00 | 0.00 | 48 | |
| 20260902063603 | 67 | 171 | 3.5 | 11.3 | 0.00 | 0.01 | 0.00 | 48 | |
| 20260902062703 | 68 | 176 | 2.6 | 6.1 | 0.00 | 0.01 | 0.00 | 47 | |
| 20260902061803 | 68 | 169 | 3.5 | 9.6 | 0.00 | 0.01 | 0.00 | 46 | |
| 20260902060903 | 68 | 158 | 2.6 | 7.0 | 0.00 | 0.01 | 0.00 | 46 | |
| 20260902060008 | 68 | 152 | 3.5 | 6.1 | 0.00 | 0.01 | 0.00 | 46 | |
| 20260902055403 | 67 | 161 | 1.7 | 6.1 | 0.00 | 0.01 | 0.01 | 47 | |
| 20260902054503 | 67 | 140 | 0.9 | 5.2 | 0.00 | 0.01 | 0.01 | 47 | |
| 20260902053603 | 67 | 174 | 0.9 | 3.5 | 0.00 | 0.01 | 0.01 | 47 | |
| 20260902052914 | 67 | 192 | 0.9 | 3.5 | 0.00 | 0.01 | 0.01 | 46 | |
| 20260902051803 | 68 | 165 | 1.7 | 5.2 | 0.00 | 0.01 | 0.01 | 46 | |
| 20260902050903 | 67 | 170 | 0.9 | 3.5 | 0.00 | 0.01 | 0.01 | 46 | |
| 20260902050006 | 67 | 144 | 0.9 | 3.5 | 0.00 | 0.01 | 0.01 | 46 | |
| 20260902045613 | 68 | 175 | 0.0 | 1.7 | 0.00 | 0.01 | 0.01 | 46 | |
| 20260902044503 | 68 | 164 | 0.9 | 6.1 | 0.00 | 0.01 | 0.01 | 44 | |
| 20260902043603 | 69 | 151 | 1.7 | 5.2 | 0.00 | 0.01 | 0.01 | 44 | |
| 20260902042703 | 69 | 179 | 0.9 | 4.3 | 0.00 | 0.01 | 0.01 | 44 | |
| 20260902041803 | 70 | 166 | 1.7 | 6.1 | 0.00 | 0.01 | 0.01 | 43 | |
| 20260902041114 | 71 | 153 | 2.6 | 7.8 | 0.00 | 0.01 | 0.01 | 41 | |
| 20260902040003 | 71 | 151 | 3.5 | 15.6 | 0.00 | 0.01 | 0.01 | 41 | |
| 20260902035403 | 71 | 148 | 3.5 | 9.6 | 0.00 | 0.01 | 0.01 | 40 | |
| 20260902034503 | 71 | 143 | 3.5 | 10.4 | 0.00 | 0.01 | 0.01 | 41 | |
| 20260902033603 | 70 | 149 | 3.5 | 9.6 | 0.00 | 0.01 | 0.01 | 42 | |
| 20260902032703 | 69 | 171 | 1.7 | 10.4 | 0.00 | 0.01 | 0.01 | 43 | |
| 20260902031803 | 68 | 198 | 0.9 | 6.1 | 0.00 | 0.01 | 0.01 | 44 | |
| 20260902030903 | 69 | 203 | 1.7 | 5.2 | 0.00 | 0.01 | 0.01 | 43 | |
| 20260902030003 | 69 | 216 | 0.9 | 3.5 | 0.00 | 0.01 | 0.01 | 42 | |
| 20260902025612 | 69 | 216 | 0.9 | 5.2 | 0.00 | 0.01 | 0.01 | 41 | |
| 20260902024714 | 70 | 197 | 2.6 | 5.2 | 0.00 | 0.01 | 0.01 | 40 | |
| 20260902023603 | 71 | 195 | 2.6 | 7.8 | 0.00 | 0.01 | 0.01 | 39 | |
| 20260902022703 | 72 | 179 | 4.3 | 8.7 | 0.00 | 0.01 | 0.01 | 38 | |
| 20260902021803 | 72 | 186 | 4.3 | 10.4 | 0.00 | 0.02 | 0.01 | 38 | |
| 20260902020903 | 72 | 190 | 4.3 | 11.3 | 0.00 | 0.02 | 0.01 | 37 | |
| 20260902020003 | 73 | 189 | 4.3 | 9.6 | 0.00 | 0.02 | 0.01 | 36 | |
| 20260902015403 | 73 | 193 | 5.2 | 10.4 | 0.00 | 0.03 | 0.01 | 36 | |
| 20260902014503 | 74 | 194 | 7.0 | 14.8 | 0.00 | 0.04 | 0.01 | 35 | |
| 20260902013603 | 75 | 192 | 7.0 | 13.9 | 0.00 | 0.05 | 0.01 | 34 | |
| 20260902012703 | 75 | 182 | 7.0 | 13.9 | 0.00 | 0.05 | 0.01 | 34 | |
| 20260902011803 | 76 | 185 | 8.7 | 20.0 | 0.00 | 0.05 | 0.01 | 32 | |
| 20260902010903 | 76 | 188 | 8.7 | 20.9 | 0.00 | 0.05 | 0.01 | 31 | |
| 20260902010003 | 77 | 180 | 9.6 | 22.6 | 0.00 | 0.05 | 0.01 | 30 | |
| 20260902005403 | 77 | 181 | 9.6 | 20.9 | 0.00 | 0.05 | 0.01 | 31 | |
| 20260902004503 | 78 | 181 | 10.4 | 22.6 | 0.00 | 0.05 | 0.01 | 31 | |
| 20260902003603 | 78 | 185 | 11.3 | 22.6 | 0.00 | 0.05 | 0.01 | 31 | |
| 20260902002703 | 78 | 181 | 10.4 | 19.1 | 0.00 | 0.05 | 0.01 | 33 | |
| 20260902001803 | 78 | 181 | 10.4 | 21.7 | 0.00 | 0.05 | 0.01 | 33 | |
| 20260902000904 | 79 | 177 | 9.6 | 19.1 | 0.00 | 0.05 | 0.01 | 34 | |
| 20260902000003 | 79 | 173 | 9.6 | 17.4 | 0.00 | 0.05 | 0.01 | 33 | |
| 20260901235403 | 79 | 180 | 12.2 | 24.3 | 0.00 | 0.05 | 0.01 | 35 | |
| 20260901234503 | 79 | 183 | 12.2 | 27.8 | 0.00 | 0.05 | 0.01 | 35 | |
| 20260901233603 | 79 | 183 | 13.0 | 26.1 | 0.00 | 0.05 | 0.01 | 35 | |
| 20260901232703 | 80 | 186 | 11.3 | 25.2 | 0.00 | 0.05 | 0.01 | 35 | |
| 20260901231803 | 80 | 181 | 13.0 | 24.3 | 0.00 | 0.05 | 0.01 | 36 | |
| 20260901230903 | 80 | 178 | 9.6 | 19.1 | 0.00 | 0.05 | 0.01 | 36 | |
| 20260901230004 | 80 | 168 | 7.8 | 20.9 | 0.00 | 0.05 | 0.01 | 35 | |
| 20260901225403 | 80 | 144 | 7.8 | 14.8 | 0.00 | 0.05 | 0.01 | 38 | |
| 20260901224503 | 80 | 149 | 7.0 | 15.6 | 0.00 | 0.05 | 0.01 | 38 | |
| 20260901223603 | 80 | 163 | 7.8 | 15.6 | 0.00 | 0.05 | 0.01 | 38 | |
| 20260901222703 | 80 | 162 | 7.0 | 13.0 | 0.00 | 0.05 | 0.01 | 37 | |
| 20260901221803 | 80 | 162 | 7.0 | 17.4 | 0.00 | 0.05 | 0.01 | 40 | |
| 20260901220903 | 79 | 168 | 7.8 | 15.6 | 0.00 | 0.05 | 0.01 | 37 | |
| 20260901220003 | 79 | 162 | 7.8 | 16.5 | 0.00 | 0.05 | 0.01 | 38 | |
| 20260901215403 | 79 | 159 | 7.0 | 14.8 | 0.00 | 0.05 | 0.01 | 39 | |
| 20260901214503 | 79 | 192 | 7.8 | 17.4 | 0.00 | 0.05 | 0.01 | 39 | |
| 20260901213813 | 79 | 188 | 8.7 | 17.4 | 0.00 | 0.05 | 0.01 | 40 | |
| 20260901212703 | 79 | 195 | 7.8 | 19.1 | 0.00 | 0.05 | 0.01 | 40 | |
| 20260901211803 | 80 | 185 | 7.0 | 15.6 | 0.00 | 0.05 | 0.01 | 38 | |
| 20260901211113 | 80 | 182 | 7.8 | 16.5 | 0.00 | 0.05 | 0.01 | 39 | |
| 20260901210004 | 79 | 175 | 7.8 | 17.4 | 0.00 | 0.05 | 0.01 | 38 | |
| 20260901205403 | 79 | 184 | 9.6 | 18.2 | 0.00 | 0.05 | 0.01 | 40 | |
| 20260901204503 | 79 | 192 | 9.6 | 20.0 | 0.00 | 0.05 | 0.01 | 42 | |
| 20260901203603 | 79 | 187 | 8.7 | 20.0 | 0.00 | 0.05 | 0.01 | 40 | |
| 20260901202703 | 78 | 187 | 8.7 | 20.0 | 0.00 | 0.05 | 0.01 | 40 | |
| 20260901201803 | 78 | 180 | 10.4 | 22.6 | 0.00 | 0.05 | 0.01 | 44 | |
| 20260901200903 | 78 | 183 | 7.8 | 22.6 | 0.00 | 0.05 | 0.01 | 40 | |
| 20260901200003 | 77 | 185 | 10.4 | 20.9 | 0.00 | 0.05 | 0.01 | 44 | |
| 20260901195403 | 77 | 188 | 10.4 | 19.1 | 0.00 | 0.05 | 0.01 | 40 | |
| 20260901194503 | 76 | 170 | 9.6 | 22.6 | 0.00 | 0.05 | 0.01 | 44 | |
| 20260901193604 | 76 | 170 | 10.4 | 20.0 | 0.00 | 0.05 | 0.01 | 47 | |
| 20260901192703 | 76 | 184 | 10.4 | 19.1 | 0.00 | 0.05 | 0.01 | 44 | |
| 20260901191803 | 76 | 172 | 8.7 | 19.1 | 0.00 | 0.05 | 0.01 | 47 | |
| 20260901190903 | 76 | 163 | 8.7 | 19.1 | 0.00 | 0.05 | 0.01 | 46 | |
| 20260901190214 | 76 | 159 | 8.7 | 18.2 | 0.00 | 0.05 | 0.01 | 48 | |
| 20260901185403 | 75 | 145 | 6.1 | 13.9 | 0.00 | 0.05 | 0.01 | 48 | |
| 20260901184503 | 74 | 148 | 6.1 | 13.0 | 0.00 | 0.05 | 0.01 | 51 | |
| 20260901183603 | 74 | 167 | 7.8 | 16.5 | 0.00 | 0.05 | 0.01 | 52 | |
| 20260901182703 | 72 | 180 | 7.8 | 15.6 | 0.00 | 0.05 | 0.01 | 51 | |
| 20260901181803 | 74 | 157 | 7.8 | 15.6 | 0.00 | 0.05 | 0.01 | 48 | |
| 20260901180903 | 73 | 169 | 7.0 | 15.6 | 0.00 | 0.05 | 0.01 | 53 | |
| 20260901180004 | 72 | 175 | 7.0 | 15.6 | 0.00 | 0.05 | 0.01 | 59 | |
| 20260901175403 | 71 | 179 | 7.0 | 14.8 | 0.00 | 0.05 | 0.01 | 59 | |
| 20260901174503 | 72 | 186 | 7.0 | 13.9 | 0.00 | 0.05 | 0.01 | 57 | |
| 20260901173603 | 73 | 185 | 7.8 | 16.5 | 0.00 | 0.05 | 0.01 | 56 | |
| 20260901172703 | 72 | 177 | 7.8 | 19.1 | 0.00 | 0.05 | 0.01 | 55 | |
| 20260901172012 | 72 | 192 | 7.8 | 16.5 | 0.00 | 0.05 | 0.01 | 56 | |
| 20260901170903 | 71 | 214 | 5.2 | 13.0 | 0.00 | 0.05 | 0.01 | 63 | |
| 20260901170213 | 71 | 207 | 6.1 | 13.9 | 0.00 | 0.05 | 0.01 | 62 | |
| 20260901165403 | 70 | 199 | 4.3 | 13.0 | 0.00 | 0.05 | 0.01 | 65 | |
| 20260901164503 | 69 | 206 | 5.2 | 15.6 | 0.00 | 0.05 | 0.01 | 67 | |
| 20260901163603 | 68 | 210 | 5.2 | 13.0 | 0.00 | 0.05 | 0.01 | 69 | |
| 20260901162703 | 66 | 203 | 5.2 | 10.4 | 0.00 | 0.05 | 0.01 | 72 | |
| 20260901161803 | 66 | 192 | 6.1 | 11.3 | 0.00 | 0.05 | 0.01 | 70 | |
| 20260901160903 | 66 | 188 | 5.2 | 10.4 | 0.00 | 0.05 | 0.01 | 71 | |
| 20260901160213 | 66 | 184 | 3.5 | 7.8 | 0.00 | 0.05 | 0.01 | 72 | |
| 20260901155612 | 65 | 184 | 4.3 | 8.7 | 0.00 | 0.05 | 0.01 | 72 | |
| 20260901154503 | 65 | 178 | 5.2 | 10.4 | 0.00 | 0.05 | 0.01 | 72 | |
| 20260901153603 | 65 | 197 | 4.3 | 8.7 | 0.00 | 0.05 | 0.01 | 71 | |
| 20260901152703 | 66 | 182 | 4.3 | 8.7 | 0.00 | 0.05 | 0.01 | 69 | |
| 20260901151803 | 66 | 162 | 3.5 | 9.6 | 0.00 | 0.05 | 0.01 | 70 | |
| 20260901150903 | 66 | 191 | 3.5 | 10.4 | 0.00 | 0.05 | 0.01 | 71 | |
| 20260901150003 | 65 | 169 | 3.5 | 7.0 | 0.00 | 0.05 | 0.01 | 71 | |
| 20260901145612 | 65 | 164 | 2.6 | 7.0 | 0.00 | 0.05 | 0.01 | 72 | |
| 20260901144503 | 64 | 146 | 4.3 | 9.6 | 0.00 | 0.05 | 0.01 | 73 | |
| 20260901143603 | 63 | 157 | 3.5 | 8.7 | 0.00 | 0.05 | 0.01 | 74 | |
| 20260901142703 | 62 | 171 | 3.5 | 4.3 | 0.00 | 0.05 | 0.01 | 76 | |
| 20260901134503 | 60 | 136 | 0.9 | 4.3 | 0.00 | 0.05 | 0.01 | 78 | |
| 20260901133603 | 60 | 134 | 1.7 | 3.5 | 0.00 | 0.05 | 0.01 | 78 | |
| 20260901132703 | 60 | 138 | 1.7 | 3.5 | 0.00 | 0.05 | 0.01 | 77 | |
| 20260901131803 | 60 | 128 | 1.7 | 4.3 | 0.00 | 0.05 | 0.01 | 77 | |
| 20260901130903 | 60 | 128 | 1.7 | 4.3 | 0.00 | 0.05 | 0.01 | 77 | |
| 20260901130003 | 60 | 141 | 2.6 | 5.2 | 0.00 | 0.05 | 0.01 | 78 | |
| 20260901125612 | 60 | 144 | 2.6 | 6.1 | 0.00 | 0.05 | 0.01 | 78 | |
| 20260901124503 | 59 | 142 | 2.6 | 6.1 | 0.00 | 0.05 | 0.01 | 80 | |
| 20260901123603 | 59 | 141 | 2.6 | 7.8 | 0.00 | 0.05 | 0.01 | 83 | |
| 20260901122703 | 57 | 132 | 1.7 | 4.3 | 0.00 | 0.05 | 0.01 | 85 | |
| 20260901121803 | 56 | 155 | 0.0 | 3.5 | 0.00 | 0.05 | 0.01 | 86 | |
| 20260901121113 | 55 | 0 | 0.0 | 0.0 | 0.00 | 0.05 | 0.01 | 86 | |
| 20260901120003 | 55 | 0 | 0.0 | 0.0 | 0.00 | 0.05 | 0.01 | 86 | |
| 20260901115403 | 55 | 0 | 0.0 | 0.0 | 0.00 | 0.05 | 0.01 | 86 | |
| 20260901114713 | 55 | 0 | 0.0 | 0.0 | 0.00 | 0.05 | 0.01 | 87 | |
| 20260901113813 | 54 | 0 | 0.0 | 0.0 | 0.00 | 0.05 | 0.01 | 87 | |
| 20260901112912 | 52 | 0 | 0.0 | 0.0 | 0.00 | 0.05 | 0.01 | 87 | |
| 20260901111803 | 51 | 0 | 0.0 | 0.0 | 0.00 | 0.05 | 0.01 | 85 | |
| 20260901110903 | 51 | 0 | 0.0 | 0.0 | 0.00 | 0.05 | 0.01 | 85 | |
| 20260901110003 | 51 | 0 | 0.0 | 0.0 | 0.00 | 0.05 | 0.01 | 84 | |
| 20260901105403 | 52 | 0 | 0.0 | 0.0 | 0.00 | 0.05 | 0.01 | 84 | |
| 20260901104713 | 52 | 0 | 0.0 | 0.0 | 0.00 | 0.05 | 0.01 | 83 | |
| 20260901103603 | 53 | 287 | 0.0 | 2.6 | 0.00 | 0.05 | 0.01 | 82 | |
| 20260901102703 | 54 | 287 | 1.7 | 4.3 | 0.00 | 0.05 | 0.01 | 81 | |
| 20260901101803 | 55 | 276 | 1.7 | 5.2 | 0.00 | 0.05 | 0.01 | 81 | |
| 20260901100903 | 56 | 140 | 0.0 | 0.9 | 0.00 | 0.05 | 0.01 | 81 | |
| 20260901100003 | 56 | 140 | 0.0 | 2.6 | 0.00 | 0.05 | 0.01 | 81 | |
| 20260901095403 | 57 | 140 | 0.0 | 2.6 | 0.00 | 0.05 | 0.01 | 81 | |
| 20260901094503 | 57 | 155 | 1.7 | 7.0 | 0.00 | 0.05 | 0.01 | 82 | |
| 20260901093603 | 57 | 179 | 3.5 | 7.0 | 0.00 | 0.05 | 0.01 | 83 | |
| 20260901092703 | 57 | 197 | 3.5 | 6.1 | 0.00 | 0.05 | 0.01 | 86 | |
| 20260901091803 | 56 | 209 | 3.5 | 8.7 | 0.00 | 0.05 | 0.01 | 87 | |
| 20260901090903 | 54 | 205 | 2.6 | 5.2 | 0.00 | 0.05 | 0.01 | 88 | |
| 20260901090003 | 54 | 203 | 0.0 | 3.5 | 0.00 | 0.05 | 0.01 | 88 | |
| 20260901085613 | 54 | 206 | 0.0 | 3.5 | 0.00 | 0.05 | 0.01 | 88 | |
| 20260901084503 | 53 | 225 | 1.7 | 5.2 | 0.00 | 0.05 | 0.01 | 88 | |
| 20260901083603 | 53 | 249 | 0.9 | 2.6 | 0.00 | 0.05 | 0.01 | 88 | |
| 20260901082913 | 53 | 249 | 0.9 | 2.6 | 0.00 | 0.05 | 0.01 | 88 | |
| 20260901081803 | 53 | 239 | 3.5 | 6.1 | 0.00 | 0.05 | 0.01 | 88 | |
| 20260901080903 | 53 | 201 | 1.7 | 4.3 | 0.00 | 0.05 | 0.01 | 88 | |
| 20260901080213 | 54 | 189 | 0.9 | 4.3 | 0.00 | 0.05 | 0.01 | 88 | |
| 20260901075403 | 53 | 188 | 0.9 | 2.6 | 0.00 | 0.05 | 0.01 | 88 | |
| 20260901074503 | 53 | 188 | 0.0 | 2.6 | 0.00 | 0.05 | 0.01 | 87 | |
| 20260901073603 | 53 | 188 | 0.0 | 0.9 | 0.01 | 0.05 | 0.01 | 87 | |
| 20260901072703 | 53 | 0 | 0.0 | 0.0 | 0.01 | 0.05 | 0.01 | 87 | |
| 20260901071803 | 53 | 188 | 0.0 | 0.9 | 0.01 | 0.05 | 0.01 | 87 | |
| 20260901070903 | 53 | 188 | 0.0 | 1.7 | 0.01 | 0.05 | 0.01 | 87 |